Time,TemperatureF,DewpointF,PressureIn,WindDirection,WindDirectionDegrees,WindSpeedMPH,WindSpeedGustMPH,Humidity,HourlyPrecipIn,Conditions,Clouds,dailyrainin,SoftwareType,DateUTC
2013-03-09 00:00:00,38.3,26.4,30.39,WNW,302,0.0,2.0,62,0.00,,CLR,0.00,VWS V14.01,2013-03-09 05:00:00,
2013-03-09 00:02:00,38.3,26.4,30.39,WNW,302,0.0,1.0,62,0.00,,CLR,0.00,VWS V14.01,2013-03-09 05:02:00,
2013-03-09 00:06:00,38.3,26.4,30.39,WNW,302,0.0,1.0,62,0.00,,CLR,0.00,VWS V14.01,2013-03-09 05:06:00,
2013-03-09 00:10:00,38.2,26.3,30.39,WNW,302,0.0,1.0,62,0.00,,CLR,0.00,VWS V14.01,2013-03-09 05:10:00,
2013-03-09 00:15:00,38.0,26.1,30.39,WNW,302,0.0,1.0,62,0.00,,CLR,0.00,VWS V14.01,2013-03-09 05:15:00,
2013-03-09 00:20:00,37.9,26.5,30.39,WNW,302,0.0,1.0,63,0.00,,CLR,0.00,VWS V14.01,2013-03-09 05:20:00,
2013-03-09 00:26:00,37.8,26.4,30.39,WNW,302,0.0,0.0,63,0.00,,CLR,0.00,VWS V14.01,2013-03-09 05:26:00,
2013-03-09 00:32:00,37.8,26.4,30.39,WNW,302,0.0,0.0,63,0.00,,CLR,0.00,VWS V14.01,2013-03-09 05:32:00,
2013-03-09 00:38:00,37.6,26.5,30.39,WNW,302,0.0,0.0,64,0.00,,CLR,0.00,VWS V14.01,2013-03-09 05:38:00,
2013-03-09 00:44:00,37.6,26.5,30.39,WNW,293,1.0,1.0,64,0.00,,CLR,0.00,VWS V14.01,2013-03-09 05:44:00,
2013-03-09 00:50:00,37.5,26.5,30.39,WNW,293,0.0,1.0,64,0.00,,CLR,0.00,VWS V14.01,2013-03-09 05:50:00,
2013-03-09 00:56:00,37.5,26.8,30.39,WNW,293,1.0,1.0,65,0.00,,CLR,0.00,VWS V14.01,2013-03-09 05:56:00,
2013-03-09 01:02:00,37.3,26.6,30.39,WNW,293,0.0,2.0,65,0.00,,CLR,0.00,VWS V14.01,2013-03-09 06:02:00,
2013-03-09 01:08:00,37.2,26.5,30.39,WNW,293,0.0,2.0,65,0.00,,CLR,0.00,VWS V14.01,2013-03-09 06:08:00,
2013-03-09 01:14:00,37.0,26.3,30.39,WNW,302,0.0,2.0,65,0.00,,CLR,0.00,VWS V14.01,2013-03-09 06:14:00,
2013-03-09 01:20:00,37.0,26.3,30.40,WNW,302,1.0,3.0,65,0.00,,CLR,0.00,VWS V14.01,2013-03-09 06:20:00,
2013-03-09 01:26:00,37.0,26.3,30.40,WNW,300,0.0,4.0,65,0.00,,CLR,0.00,VWS V14.01,2013-03-09 06:26:00,
2013-03-09 01:32:00,37.0,26.3,30.40,NW,321,1.0,1.0,65,0.00,,CLR,0.00,VWS V14.01,2013-03-09 06:32:00,
2013-03-09 01:38:00,36.6,26.3,30.40,NW,321,0.0,1.0,66,0.00,,CLR,0.00,VWS V14.01,2013-03-09 06:38:00,
2013-03-09 01:44:00,36.3,26.4,30.40,NW,321,1.0,1.0,67,0.00,,CLR,0.00,VWS V14.01,2013-03-09 06:44:00,
2013-03-09 01:50:00,36.2,26.3,30.40,NW,320,0.0,2.0,67,0.00,,CLR,0.00,VWS V14.01,2013-03-09 06:50:00,
2013-03-09 01:56:00,35.9,26.4,30.40,NW,320,0.0,1.0,68,0.00,,CLR,0.00,VWS V14.01,2013-03-09 06:56:00,
2013-03-09 02:02:00,35.8,26.3,30.40,NW,320,0.0,0.0,68,0.00,,CLR,0.00,VWS V14.01,2013-03-09 07:02:00,
2013-03-09 02:08:00,35.8,25.9,30.40,NW,320,0.0,1.0,67,0.00,,CLR,0.00,VWS V14.01,2013-03-09 07:08:00,
2013-03-09 02:14:00,35.8,25.9,30.40,NW,320,0.0,1.0,67,0.00,,CLR,0.00,VWS V14.01,2013-03-09 07:14:00,
2013-03-09 02:20:00,35.8,25.9,30.40,NW,320,0.0,2.0,67,0.00,,CLR,0.00,VWS V14.01,2013-03-09 07:20:00,
2013-03-09 02:26:00,35.6,26.1,30.40,NNW,327,0.0,1.0,68,0.00,,CLR,0.00,VWS V14.01,2013-03-09 07:26:00,
2013-03-09 02:32:00,35.6,25.7,30.39,North,0,0.0,1.0,67,0.00,,CLR,0.00,VWS V14.01,2013-03-09 07:32:00,
2013-03-09 02:38:00,35.6,25.7,30.39,NNW,342,0.0,3.0,67,0.00,,CLR,0.00,VWS V14.01,2013-03-09 07:38:00,
2013-03-09 02:44:00,35.6,25.7,30.39,NNW,342,1.0,1.0,67,0.00,,CLR,0.00,VWS V14.01,2013-03-09 07:44:00,
2013-03-09 02:50:00,35.5,26.0,30.39,NNW,342,0.0,2.0,68,0.00,,CLR,0.00,VWS V14.01,2013-03-09 07:50:00,
2013-03-09 02:56:00,35.5,26.0,30.39,NNW,342,0.0,1.0,68,0.00,,CLR,0.00,VWS V14.01,2013-03-09 07:56:00,
2013-03-09 03:02:00,35.3,25.8,30.38,NNW,342,0.0,0.0,68,0.00,,CLR,0.00,VWS V14.01,2013-03-09 08:02:00,
2013-03-09 03:08:00,35.2,25.7,30.38,NNW,342,0.0,1.0,68,0.00,,CLR,0.00,VWS V14.01,2013-03-09 08:08:00,
2013-03-09 03:14:00,35.2,25.7,30.37,North,353,0.0,1.0,68,0.00,,CLR,0.00,VWS V14.01,2013-03-09 08:14:00,
2013-03-09 03:20:00,35.2,25.4,30.37,NNW,335,0.0,3.0,67,0.00,,CLR,0.00,VWS V14.01,2013-03-09 08:20:00,
2013-03-09 03:25:00,35.2,25.4,30.37,NNW,330,0.0,2.0,67,0.00,,CLR,0.00,VWS V14.01,2013-03-09 08:25:00,
2013-03-09 03:31:00,35.2,25.4,30.37,NNW,330,0.0,0.0,67,0.00,,CLR,0.00,VWS V14.01,2013-03-09 08:31:00,
2013-03-09 03:37:00,35.2,25.7,30.37,NNW,330,0.0,1.0,68,0.00,,CLR,0.00,VWS V14.01,2013-03-09 08:37:00,
2013-03-09 03:43:00,35.0,25.5,30.37,NNW,330,0.0,0.0,68,0.00,,CLR,0.00,VWS V14.01,2013-03-09 08:43:00,
2013-03-09 03:49:00,34.9,25.8,30.37,West,272,0.0,0.0,69,0.00,,CLR,0.00,VWS V14.01,2013-03-09 08:49:00,
2013-03-09 03:55:00,34.7,25.2,30.37,West,272,0.0,0.0,68,0.00,,CLR,0.00,VWS V14.01,2013-03-09 08:55:00,
2013-03-09 04:01:00,34.6,25.1,30.37,West,272,0.0,0.0,68,0.00,,CLR,0.00,VWS V14.01,2013-03-09 09:01:00,
2013-03-09 04:07:00,34.6,25.1,30.37,North,349,0.0,2.0,68,0.00,,CLR,0.00,VWS V14.01,2013-03-09 09:07:00,
2013-03-09 04:13:00,34.6,25.1,30.37,NE,56,0.0,2.0,68,0.00,,CLR,0.00,VWS V14.01,2013-03-09 09:13:00,
2013-03-09 04:19:00,34.9,25.4,30.38,NNW,330,0.0,3.0,68,0.00,,CLR,0.00,VWS V14.01,2013-03-09 09:19:00,
2013-03-09 04:25:00,35.0,25.5,30.38,North,9,0.0,2.0,68,0.00,,CLR,0.00,VWS V14.01,2013-03-09 09:25:00,
2013-03-09 04:31:00,35.0,25.5,30.38,North,9,0.0,0.0,68,0.00,,CLR,0.00,VWS V14.01,2013-03-09 09:31:00,
2013-03-09 04:37:00,35.0,25.5,30.38,WNW,294,0.0,2.0,68,0.00,,CLR,0.00,VWS V14.01,2013-03-09 09:37:00,
2013-03-09 04:43:00,34.9,25.4,30.38,WNW,294,0.0,0.0,68,0.00,,CLR,0.00,VWS V14.01,2013-03-09 09:43:00,
2013-03-09 04:49:00,34.4,25.6,30.39,WNW,294,0.0,0.0,70,0.00,,CLR,0.00,VWS V14.01,2013-03-09 09:49:00,
2013-03-09 04:55:00,34.1,25.7,30.39,WNW,294,0.0,1.0,71,0.00,,CLR,0.00,VWS V14.01,2013-03-09 09:55:00,
2013-03-09 05:01:00,33.7,25.6,30.39,WNW,294,0.0,0.0,72,0.00,,CLR,0.00,VWS V14.01,2013-03-09 10:01:00,
2013-03-09 05:07:00,33.2,25.5,30.39,WNW,294,0.0,0.0,73,0.00,,CLR,0.00,VWS V14.01,2013-03-09 10:07:00,
2013-03-09 05:13:00,32.9,25.2,30.39,WNW,294,0.0,0.0,73,0.00,,CLR,0.00,VWS V14.01,2013-03-09 10:13:00,
2013-03-09 05:19:00,32.7,25.3,30.40,WNW,294,0.0,0.0,74,0.00,,CLR,0.00,VWS V14.01,2013-03-09 10:19:00,
2013-03-09 05:25:00,32.5,25.1,30.40,WNW,294,0.0,0.0,74,0.00,,CLR,0.00,VWS V14.01,2013-03-09 10:25:00,
2013-03-09 05:32:00,32.2,25.2,30.40,WNW,294,0.0,0.0,75,0.00,,CLR,0.00,VWS V14.01,2013-03-09 10:32:00,
2013-03-09 05:38:00,32.1,25.1,30.40,WNW,294,0.0,0.0,75,0.00,,CLR,0.00,VWS V14.01,2013-03-09 10:38:00,
2013-03-09 05:44:00,32.2,25.2,30.40,WNW,294,0.0,0.0,75,0.00,,CLR,0.00,VWS V14.01,2013-03-09 10:44:00,
2013-03-09 05:50:00,32.4,25.4,30.40,WNW,294,0.0,0.0,75,0.00,,CLR,0.00,VWS V14.01,2013-03-09 10:50:00,
2013-03-09 05:56:00,32.8,25.1,30.40,NW,314,0.0,1.0,73,0.00,,CLR,0.00,VWS V14.01,2013-03-09 10:56:00,
2013-03-09 06:02:00,33.1,25.4,30.40,NW,314,0.0,0.0,73,0.00,,CLR,0.00,VWS V14.01,2013-03-09 11:02:00,
2013-03-09 06:08:00,33.2,25.2,30.40,NNE,22,0.0,1.0,72,0.00,,CLR,0.00,VWS V14.01,2013-03-09 11:08:00,
2013-03-09 06:14:00,33.2,25.2,30.40,ENE,77,0.0,0.0,72,0.00,,CLR,0.00,VWS V14.01,2013-03-09 11:14:00,
2013-03-09 06:20:00,33.4,25.0,30.41,North,3,0.0,2.0,71,0.00,,CLR,0.00,VWS V14.01,2013-03-09 11:20:00,
2013-03-09 06:26:00,33.4,25.0,30.41,North,5,0.0,0.0,71,0.00,,CLR,0.00,VWS V14.01,2013-03-09 11:26:00,
2013-03-09 06:32:00,33.4,25.0,30.41,NE,55,0.0,0.0,71,0.00,,CLR,0.00,VWS V14.01,2013-03-09 11:32:00,
2013-03-09 06:38:00,33.1,25.1,30.41,NE,55,0.0,0.0,72,0.00,,CLR,0.00,VWS V14.01,2013-03-09 11:38:00,
2013-03-09 06:44:00,32.9,25.2,30.41,NNW,335,0.0,0.0,73,0.00,,CLR,0.00,VWS V14.01,2013-03-09 11:44:00,
2013-03-09 06:50:00,32.5,25.1,30.41,NNW,335,0.0,0.0,74,0.00,,CLR,0.00,VWS V14.01,2013-03-09 11:50:00,
2013-03-09 06:56:00,32.2,25.2,30.41,NNW,335,0.0,0.0,75,0.00,,CLR,0.00,VWS V14.01,2013-03-09 11:56:00,
2013-03-09 07:02:00,32.2,25.5,30.41,NNW,335,0.0,0.0,76,0.00,,CLR,0.00,VWS V14.01,2013-03-09 12:02:00,
2013-03-09 07:08:00,32.1,25.4,30.41,NNW,335,0.0,0.0,76,0.00,,CLR,0.00,VWS V14.01,2013-03-09 12:08:00,
2013-03-09 07:14:00,32.4,25.4,30.41,NNW,335,0.0,0.0,75,0.00,,CLR,0.00,VWS V14.01,2013-03-09 12:14:00,
2013-03-09 07:20:00,32.8,25.4,30.41,WSW,255,0.0,1.0,74,0.00,,CLR,0.00,VWS V14.01,2013-03-09 12:20:00,
2013-03-09 07:26:00,33.5,25.8,30.41,NNE,31,0.0,0.0,73,0.00,,CLR,0.00,VWS V14.01,2013-03-09 12:26:00,
2013-03-09 07:32:00,34.0,25.6,30.42,North,0,0.0,0.0,71,0.00,,CLR,0.00,VWS V14.01,2013-03-09 12:32:00,
2013-03-09 07:38:00,34.6,25.8,30.42,NW,326,0.0,1.0,70,0.00,,CLR,0.00,VWS V14.01,2013-03-09 12:38:00,
2013-03-09 07:44:00,35.3,26.2,30.42,WNW,295,2.0,3.0,69,0.00,,CLR,0.00,VWS V14.01,2013-03-09 12:44:00,
2013-03-09 07:50:00,36.0,26.1,30.42,NW,308,0.0,3.0,67,0.00,,CLR,0.00,VWS V14.01,2013-03-09 12:50:00,
2013-03-09 07:56:00,36.8,26.5,30.42,North,0,0.0,4.0,66,0.00,,CLR,0.00,VWS V14.01,2013-03-09 12:56:00,
2013-03-09 08:02:00,37.3,26.6,30.44,NW,309,1.0,1.0,65,0.00,,CLR,0.00,VWS V14.01,2013-03-09 13:02:00,
2013-03-09 08:08:00,38.0,26.1,30.44,NNE,25,0.0,2.0,62,0.00,,CLR,0.00,VWS V14.01,2013-03-09 13:08:00,
2013-03-09 08:14:00,38.8,26.5,30.43,NW,321,0.0,0.0,61,0.00,,CLR,0.00,VWS V14.01,2013-03-09 13:14:00,
2013-03-09 08:20:00,39.5,26.4,30.43,NE,46,1.0,3.0,59,0.00,,CLR,0.00,VWS V14.01,2013-03-09 13:20:00,
2013-03-09 08:26:00,40.2,27.0,30.43,NE,42,0.0,4.0,59,0.00,,CLR,0.00,VWS V14.01,2013-03-09 13:26:00,
2013-03-09 08:32:00,40.6,26.1,30.44,West,263,0.0,5.0,56,0.00,,CLR,0.00,VWS V14.01,2013-03-09 13:32:00,
2013-03-09 08:38:00,41.1,26.6,30.44,NNE,30,0.0,5.0,56,0.00,,CLR,0.00,VWS V14.01,2013-03-09 13:38:00,
2013-03-09 08:44:00,41.3,25.9,30.45,ESE,117,0.0,4.0,54,0.00,,CLR,0.00,VWS V14.01,2013-03-09 13:44:00,
2013-03-09 08:50:00,41.6,26.2,30.45,NW,305,0.0,5.0,54,0.00,,CLR,0.00,VWS V14.01,2013-03-09 13:50:00,
2013-03-09 08:56:00,42.1,25.8,30.45,North,0,0.0,3.0,52,0.00,,CLR,0.00,VWS V14.01,2013-03-09 13:56:00,
2013-03-09 09:03:00,42.5,25.7,30.45,North,1,0.0,5.0,51,0.00,,CLR,0.00,VWS V14.01,2013-03-09 14:03:00,
2013-03-09 09:09:00,42.8,26.4,30.45,North,10,0.0,5.0,52,0.00,,CLR,0.00,VWS V14.01,2013-03-09 14:09:00,
2013-03-09 09:15:00,43.5,26.6,30.45,NW,311,4.0,4.0,51,0.00,,CLR,0.00,VWS V14.01,2013-03-09 14:15:00,
2013-03-09 09:20:00,43.8,25.9,30.45,North,356,0.0,4.0,49,0.00,,CLR,0.00,VWS V14.01,2013-03-09 14:20:00,
2013-03-09 09:27:00,44.1,25.7,30.45,NW,326,0.0,7.0,48,0.00,,CLR,0.00,VWS V14.01,2013-03-09 14:27:00,
2013-03-09 09:33:00,44.5,26.0,30.45,North,8,0.0,0.0,48,0.00,,CLR,0.00,VWS V14.01,2013-03-09 14:33:00,
2013-03-09 09:39:00,44.9,25.9,30.45,WNW,297,2.0,6.0,47,0.00,,CLR,0.00,VWS V14.01,2013-03-09 14:39:00,
2013-03-09 09:45:00,45.2,25.1,30.45,NW,311,2.0,4.0,45,0.00,,CLR,0.00,VWS V14.01,2013-03-09 14:45:00,
2013-03-09 09:50:00,45.5,25.4,30.45,WNW,302,0.0,4.0,45,0.00,,CLR,0.00,VWS V14.01,2013-03-09 14:50:00,
2013-03-09 09:55:00,46.0,25.9,30.45,NE,38,2.0,4.0,45,0.00,,CLR,0.00,VWS V14.01,2013-03-09 14:55:00,
2013-03-09 10:01:00,46.5,26.9,30.45,NW,309,4.0,4.0,46,0.00,,CLR,0.00,VWS V14.01,2013-03-09 15:01:00,
2013-03-09 10:07:00,47.4,24.9,30.45,ESE,117,0.0,5.0,41,0.00,,CLR,0.00,VWS V14.01,2013-03-09 15:07:00,
2013-03-09 10:13:00,47.7,25.8,30.45,NNE,20,2.0,3.0,42,0.00,,CLR,0.00,VWS V14.01,2013-03-09 15:13:00,
2013-03-09 10:19:00,48.2,26.8,30.45,NW,311,4.0,4.0,43,0.00,,CLR,0.00,VWS V14.01,2013-03-09 15:19:00,
2013-03-09 10:25:00,48.3,25.7,30.45,WNW,301,1.0,6.0,41,0.00,,CLR,0.00,VWS V14.01,2013-03-09 15:25:00,
2013-03-09 10:31:00,48.8,25.6,30.45,NW,323,0.0,1.0,40,0.00,,CLR,0.00,VWS V14.01,2013-03-09 15:31:00,
2013-03-09 10:37:00,49.1,25.8,30.45,NW,307,0.0,4.0,40,0.00,,CLR,0.00,VWS V14.01,2013-03-09 15:37:00,
2013-03-09 10:43:00,49.6,26.3,30.45,WSW,258,0.0,2.0,40,0.00,,CLR,0.00,VWS V14.01,2013-03-09 15:43:00,
2013-03-09 10:49:00,50.2,26.2,30.44,ESE,110,0.0,3.0,39,0.00,,CLR,0.00,VWS V14.01,2013-03-09 15:49:00,
2013-03-09 10:55:00,50.5,26.5,30.44,NNW,347,3.0,3.0,39,0.00,,CLR,0.00,VWS V14.01,2013-03-09 15:55:00,
2013-03-09 11:02:00,50.7,24.7,30.44,NNW,327,2.0,4.0,36,0.00,,CLR,0.00,VWS V14.01,2013-03-09 16:02:00,
2013-03-09 11:08:00,51.1,25.1,30.44,East,92,1.0,4.0,36,0.00,,CLR,0.00,VWS V14.01,2013-03-09 16:08:00,
2013-03-09 11:14:00,52.0,26.5,30.44,NE,38,0.0,4.0,37,0.00,,CLR,0.00,VWS V14.01,2013-03-09 16:14:00,
2013-03-09 11:20:00,52.3,26.2,30.45,WNW,288,1.0,9.0,36,0.00,,CLR,0.00,VWS V14.01,2013-03-09 16:20:00,
2013-03-09 11:26:00,52.5,25.7,30.45,NW,312,1.0,3.0,35,0.00,,CLR,0.00,VWS V14.01,2013-03-09 16:26:00,
2013-03-09 11:32:00,53.1,25.5,30.45,North,0,1.0,5.0,34,0.00,,CLR,0.00,VWS V14.01,2013-03-09 16:32:00,
2013-03-09 11:38:00,52.9,24.6,30.45,North,0,1.0,6.0,33,0.00,,CLR,0.00,VWS V14.01,2013-03-09 16:38:00,
2013-03-09 11:44:00,52.9,24.6,30.45,WSW,246,0.0,7.0,33,0.00,,CLR,0.00,VWS V14.01,2013-03-09 16:44:00,
2013-03-09 11:50:00,53.1,25.5,30.44,West,268,2.0,7.0,34,0.00,,CLR,0.00,VWS V14.01,2013-03-09 16:50:00,
2013-03-09 11:56:00,53.5,25.8,30.44,NNW,339,1.0,4.0,34,0.00,,CLR,0.00,VWS V14.01,2013-03-09 16:56:00,
2013-03-09 12:02:00,54.2,26.5,30.43,WNW,301,2.0,2.0,34,0.00,,CLR,0.00,VWS V14.01,2013-03-09 17:02:00,
2013-03-09 12:08:00,54.7,26.2,30.43,NNW,345,0.0,4.0,33,0.00,,CLR,0.00,VWS V14.01,2013-03-09 17:08:00,
2013-03-09 12:14:00,54.4,25.2,30.43,South,184,0.0,4.0,32,0.00,,CLR,0.00,VWS V14.01,2013-03-09 17:14:00,
2013-03-09 12:20:00,55.0,24.9,30.43,North,355,2.0,5.0,31,0.00,,CLR,0.00,VWS V14.01,2013-03-09 17:20:00,
2013-03-09 12:26:00,55.3,26.0,30.43,NW,318,2.0,3.0,32,0.00,,CLR,0.00,VWS V14.01,2013-03-09 17:26:00,
2013-03-09 12:32:00,55.9,24.1,30.43,WNW,284,1.0,5.0,29,0.00,,CLR,0.00,VWS V14.01,2013-03-09 17:32:00,
2013-03-09 12:38:00,56.6,25.5,30.43,NNE,28,0.0,5.0,30,0.00,,CLR,0.00,VWS V14.01,2013-03-09 17:38:00,
2013-03-09 12:44:00,56.6,23.9,30.43,WNW,294,3.0,5.0,28,0.00,,CLR,0.00,VWS V14.01,2013-03-09 17:44:00,
2013-03-09 12:50:00,56.9,24.1,30.42,NW,311,2.0,5.0,28,0.00,,CLR,0.00,VWS V14.01,2013-03-09 17:50:00,
2013-03-09 12:56:00,57.3,24.5,30.42,West,261,1.0,3.0,28,0.00,,CLR,0.00,VWS V14.01,2013-03-09 17:56:00,
2013-03-09 13:02:00,58.0,24.2,30.42,NW,310,0.0,3.0,27,0.00,,CLR,0.00,VWS V14.01,2013-03-09 18:02:00,
2013-03-09 13:08:00,58.1,24.3,30.42,NW,319,1.0,4.0,27,0.00,,CLR,0.00,VWS V14.01,2013-03-09 18:08:00,
2013-03-09 13:14:00,58.0,22.4,30.42,NNW,336,0.0,7.0,25,0.00,,CLR,0.00,VWS V14.01,2013-03-09 18:14:00,
2013-03-09 13:20:00,58.1,23.4,30.41,WNW,295,1.0,7.0,26,0.00,,CLR,0.00,VWS V14.01,2013-03-09 18:20:00,
2013-03-09 13:26:00,58.4,23.7,30.41,ESE,103,3.0,3.0,26,0.00,,CLR,0.00,VWS V14.01,2013-03-09 18:26:00,
2013-03-09 13:32:00,58.3,23.6,30.40,ENE,60,1.0,2.0,26,0.00,,CLR,0.00,VWS V14.01,2013-03-09 18:32:00,
2013-03-09 13:38:00,58.7,24.8,30.40,SE,129,2.0,4.0,27,0.00,,CLR,0.00,VWS V14.01,2013-03-09 18:38:00,
2013-03-09 13:44:00,58.6,23.8,30.40,ESE,106,1.0,3.0,26,0.00,,CLR,0.00,VWS V14.01,2013-03-09 18:44:00,
2013-03-09 13:50:00,58.6,24.8,30.40,ENE,72,1.0,4.0,27,0.00,,CLR,0.00,VWS V14.01,2013-03-09 18:50:00,
2013-03-09 13:56:00,59.0,23.2,30.40,NE,46,0.0,3.0,25,0.00,,CLR,0.00,VWS V14.01,2013-03-09 18:56:00,
2013-03-09 14:02:00,59.8,23.9,30.39,WNW,302,3.0,4.0,25,0.00,,CLR,0.00,VWS V14.01,2013-03-09 19:02:00,
2013-03-09 14:08:00,60.4,23.5,30.39,WNW,293,1.0,4.0,24,0.00,,CLR,0.00,VWS V14.01,2013-03-09 19:08:00,
2013-03-09 14:14:00,60.9,24.9,30.38,North,0,2.0,3.0,25,0.00,,CLR,0.00,VWS V14.01,2013-03-09 19:14:00,
2013-03-09 14:20:00,60.2,23.3,30.38,NW,321,0.0,4.0,24,0.00,,CLR,0.00,VWS V14.01,2013-03-09 19:20:00,
2013-03-09 14:26:00,60.1,24.2,30.38,SE,146,0.0,2.0,25,0.00,,CLR,0.00,VWS V14.01,2013-03-09 19:26:00,
2013-03-09 14:32:00,60.2,22.3,30.38,NW,319,0.0,4.0,23,0.00,,CLR,0.00,VWS V14.01,2013-03-09 19:32:00,
2013-03-09 14:38:00,60.5,23.5,30.38,West,262,1.0,4.0,24,0.00,,CLR,0.00,VWS V14.01,2013-03-09 19:38:00,
2013-03-09 14:44:00,61.2,25.1,30.38,WNW,295,0.0,2.0,25,0.00,,CLR,0.00,VWS V14.01,2013-03-09 19:44:00,
2013-03-09 14:50:00,61.3,23.2,30.38,NNE,30,0.0,5.0,23,0.00,,CLR,0.00,VWS V14.01,2013-03-09 19:50:00,
2013-03-09 14:57:00,60.4,23.5,30.38,SSW,211,0.0,4.0,24,0.00,,CLR,0.00,VWS V14.01,2013-03-09 19:57:00,
2013-03-09 15:03:00,60.9,25.8,30.38,NE,41,1.0,2.0,26,0.00,,CLR,0.00,VWS V14.01,2013-03-09 20:03:00,
2013-03-09 15:09:00,61.5,25.4,30.38,WNW,300,0.0,4.0,25,0.00,,CLR,0.00,VWS V14.01,2013-03-09 20:09:00,
2013-03-09 15:15:00,61.8,25.6,30.38,NNE,28,1.0,3.0,25,0.00,,CLR,0.00,VWS V14.01,2013-03-09 20:15:00,
2013-03-09 15:20:00,61.3,24.2,30.38,East,98,1.0,3.0,24,0.00,,CLR,0.00,VWS V14.01,2013-03-09 20:20:00,
2013-03-09 15:25:00,60.9,24.9,30.38,WNW,285,7.0,7.0,25,0.00,,CLR,0.00,VWS V14.01,2013-03-09 20:25:00,
2013-03-09 15:31:00,60.7,24.7,30.37,NE,39,0.0,1.0,25,0.00,,CLR,0.00,VWS V14.01,2013-03-09 20:31:00,
2013-03-09 15:37:00,61.0,25.0,30.37,ENE,63,1.0,4.0,25,0.00,,CLR,0.00,VWS V14.01,2013-03-09 20:37:00,
2013-03-09 15:43:00,61.3,25.2,30.37,ENE,63,2.0,2.0,25,0.00,,CLR,0.00,VWS V14.01,2013-03-09 20:43:00,
2013-03-09 15:49:00,60.9,25.8,30.37,NW,326,1.0,4.0,26,0.00,,CLR,0.00,VWS V14.01,2013-03-09 20:49:00,
2013-03-09 15:55:00,61.2,25.1,30.37,East,88,1.0,2.0,25,0.00,,CLR,0.00,VWS V14.01,2013-03-09 20:55:00,
2013-03-09 16:02:00,61.2,26.1,30.37,East,88,0.0,1.0,26,0.00,,CLR,0.00,VWS V14.01,2013-03-09 21:02:00,
2013-03-09 16:08:00,61.0,25.0,30.37,ENE,69,2.0,4.0,25,0.00,,CLR,0.00,VWS V14.01,2013-03-09 21:08:00,
2013-03-09 16:14:00,60.5,24.5,30.37,North,355,2.0,5.0,25,0.00,,CLR,0.00,VWS V14.01,2013-03-09 21:14:00,
2013-03-09 16:20:00,60.5,25.5,30.37,NNW,343,0.0,5.0,26,0.00,,CLR,0.00,VWS V14.01,2013-03-09 21:20:00,
2013-03-09 16:26:00,60.7,25.6,30.37,NW,309,1.0,4.0,26,0.00,,CLR,0.00,VWS V14.01,2013-03-09 21:26:00,
2013-03-09 16:32:00,60.7,24.7,30.37,North,350,0.0,3.0,25,0.00,,CLR,0.00,VWS V14.01,2013-03-09 21:32:00,
2013-03-09 16:38:00,60.9,25.8,30.37,NE,49,0.0,3.0,26,0.00,,CLR,0.00,VWS V14.01,2013-03-09 21:38:00,
2013-03-09 16:44:00,61.0,25.9,30.37,NE,49,0.0,2.0,26,0.00,,CLR,0.00,VWS V14.01,2013-03-09 21:44:00,
2013-03-09 16:50:00,60.5,25.5,30.36,NE,49,0.0,2.0,26,0.00,,CLR,0.00,VWS V14.01,2013-03-09 21:50:00,
2013-03-09 16:56:00,60.2,25.2,30.36,NE,49,0.0,1.0,26,0.00,,CLR,0.00,VWS V14.01,2013-03-09 21:56:00,
2013-03-09 17:02:00,60.1,25.1,30.37,North,6,0.0,2.0,26,0.00,,CLR,0.00,VWS V14.01,2013-03-09 22:02:00,
2013-03-09 17:08:00,59.9,25.9,30.37,NNE,13,0.0,2.0,27,0.00,,CLR,0.00,VWS V14.01,2013-03-09 22:08:00,
2013-03-09 17:14:00,59.6,25.6,30.37,NNE,13,0.0,1.0,27,0.00,,CLR,0.00,VWS V14.01,2013-03-09 22:14:00,
2013-03-09 17:20:00,59.3,25.4,30.37,NNE,13,0.0,1.0,27,0.00,,CLR,0.00,VWS V14.01,2013-03-09 22:20:00,
2013-03-09 17:26:00,59.3,25.4,30.37,NNE,13,0.0,0.0,27,0.00,,CLR,0.00,VWS V14.01,2013-03-09 22:26:00,
2013-03-09 17:32:00,59.0,26.0,30.37,NNE,13,0.0,0.0,28,0.00,,CLR,0.00,VWS V14.01,2013-03-09 22:32:00,
2013-03-09 17:38:00,58.6,25.6,30.37,NNE,13,0.0,1.0,28,0.00,,CLR,0.00,VWS V14.01,2013-03-09 22:38:00,
2013-03-09 17:44:00,58.1,25.2,30.37,NNE,13,0.0,1.0,28,0.00,,CLR,0.00,VWS V14.01,2013-03-09 22:44:00,
2013-03-09 17:50:00,57.8,24.9,30.37,NNE,13,0.0,1.0,28,0.00,,CLR,0.00,VWS V14.01,2013-03-09 22:50:00,
2013-03-09 17:56:00,57.3,26.2,30.37,NNE,13,0.0,0.0,30,0.00,,CLR,0.00,VWS V14.01,2013-03-09 22:56:00,
2013-03-09 18:02:00,56.7,26.4,30.37,NNE,13,0.0,0.0,31,0.00,,CLR,0.00,VWS V14.01,2013-03-09 23:02:00,
2013-03-09 18:08:00,56.3,26.1,30.37,NNE,13,0.0,0.0,31,0.00,,CLR,0.00,VWS V14.01,2013-03-09 23:08:00,
2013-03-09 18:14:00,55.7,27.8,30.37,NNE,13,0.0,0.0,34,0.00,,CLR,0.00,VWS V14.01,2013-03-09 23:14:00,
2013-03-09 18:20:00,55.0,27.9,30.39,NNE,13,0.0,0.0,35,0.00,,CLR,0.00,VWS V14.01,2013-03-09 23:20:00,
2013-03-09 18:26:00,54.2,27.9,30.39,NNE,13,0.0,0.0,36,0.00,,CLR,0.00,VWS V14.01,2013-03-09 23:26:00,
2013-03-09 18:32:00,53.6,27.3,30.39,NNE,13,0.0,0.0,36,0.00,,CLR,0.00,VWS V14.01,2013-03-09 23:32:00,
2013-03-09 18:38:00,52.9,28.0,30.39,NNE,13,0.0,0.0,38,0.00,,CLR,0.00,VWS V14.01,2013-03-09 23:38:00,
2013-03-09 18:44:00,52.2,27.4,30.39,NNE,13,0.0,0.0,38,0.00,,CLR,0.00,VWS V14.01,2013-03-09 23:44:00,
2013-03-09 18:50:00,51.6,28.7,30.39,NNE,13,0.0,0.0,41,0.00,,CLR,0.00,VWS V14.01,2013-03-09 23:50:00,
2013-03-09 18:56:00,50.8,28.0,30.39,NNE,13,0.0,0.0,41,0.00,,CLR,0.00,VWS V14.01,2013-03-09 23:56:00,
2013-03-09 19:02:00,50.2,28.0,30.40,NNE,13,0.0,0.0,42,0.00,,CLR,0.00,VWS V14.01,2013-03-10 00:02:00,
2013-03-09 19:08:00,49.8,28.2,30.40,NNE,13,0.0,0.0,43,0.00,,CLR,0.00,VWS V14.01,2013-03-10 00:08:00,
2013-03-09 19:14:00,49.2,27.1,30.40,NNE,13,0.0,0.0,42,0.00,,CLR,0.00,VWS V14.01,2013-03-10 00:14:00,
2013-03-09 19:20:00,49.1,27.0,30.40,NNE,13,0.0,0.0,42,0.00,,CLR,0.00,VWS V14.01,2013-03-10 00:20:00,
2013-03-09 19:26:00,48.9,26.8,30.40,NNE,13,0.0,0.0,42,0.00,,CLR,0.00,VWS V14.01,2013-03-10 00:26:00,
2013-03-09 19:32:00,48.6,27.1,30.40,NNE,13,0.0,0.0,43,0.00,,CLR,0.00,VWS V14.01,2013-03-10 00:32:00,
2013-03-09 19:38:00,48.5,26.5,30.40,NNE,13,0.0,0.0,42,0.00,,CLR,0.00,VWS V14.01,2013-03-10 00:38:00,
2013-03-09 19:44:00,48.2,26.2,30.41,NNE,13,0.0,0.0,42,0.00,,CLR,0.00,VWS V14.01,2013-03-10 00:44:00,
2013-03-09 19:50:00,48.0,26.0,30.41,NNE,13,0.0,0.0,42,0.00,,CLR,0.00,VWS V14.01,2013-03-10 00:50:00,
2013-03-09 19:57:00,47.7,25.8,30.41,NNE,13,0.0,0.0,42,0.00,,CLR,0.00,VWS V14.01,2013-03-10 00:57:00,
2013-03-09 20:03:00,47.6,25.1,30.41,NNE,13,0.0,0.0,41,0.00,,CLR,0.00,VWS V14.01,2013-03-10 01:03:00,
2013-03-09 20:09:00,47.6,25.1,30.41,NNE,13,0.0,0.0,41,0.00,,CLR,0.00,VWS V14.01,2013-03-10 01:09:00,
2013-03-09 20:15:00,47.6,25.7,30.41,NNE,13,0.0,0.0,42,0.00,,CLR,0.00,VWS V14.01,2013-03-10 01:15:00,
2013-03-09 20:20:00,47.4,25.5,30.41,NNE,13,0.0,0.0,42,0.00,,CLR,0.00,VWS V14.01,2013-03-10 01:20:00,
2013-03-09 20:27:00,47.3,25.4,30.41,NNE,13,0.0,0.0,42,0.00,,CLR,0.00,VWS V14.01,2013-03-10 01:27:00,
2013-03-09 20:33:00,47.1,24.6,30.41,NNE,13,0.0,0.0,41,0.00,,CLR,0.00,VWS V14.01,2013-03-10 01:33:00,
2013-03-09 20:39:00,47.1,24.6,30.41,NNE,13,0.0,0.0,41,0.00,,CLR,0.00,VWS V14.01,2013-03-10 01:39:00,
2013-03-09 20:45:00,47.1,24.6,30.41,NNE,13,0.0,0.0,41,0.00,,CLR,0.00,VWS V14.01,2013-03-10 01:45:00,
2013-03-09 20:50:00,47.1,24.0,30.41,NNE,13,0.0,0.0,40,0.00,,CLR,0.00,VWS V14.01,2013-03-10 01:50:00,
2013-03-09 20:55:00,47.1,24.0,30.41,NNE,13,0.0,0.0,40,0.00,,CLR,0.00,VWS V14.01,2013-03-10 01:55:00,
2013-03-09 21:01:00,47.3,23.6,30.41,NNE,13,0.0,0.0,39,0.00,,CLR,0.00,VWS V14.01,2013-03-10 02:01:00,
2013-03-09 21:07:00,47.4,23.7,30.41,NNE,13,0.0,0.0,39,0.00,,CLR,0.00,VWS V14.01,2013-03-10 02:07:00,
2013-03-09 21:17:00,47.3,24.2,30.41,NNE,13,0.0,0.0,40,0.00,,CLR,0.00,VWS V14.01,2013-03-10 02:17:00,
2013-03-09 21:23:00,47.3,23.0,30.41,NNE,13,0.0,0.0,38,0.00,,CLR,0.00,VWS V14.01,2013-03-10 02:23:00,
2013-03-09 21:29:00,47.3,23.0,30.41,NNE,13,0.0,0.0,38,0.00,,CLR,0.00,VWS V14.01,2013-03-10 02:29:00,
2013-03-09 21:35:00,47.3,23.0,30.41,NNE,13,0.0,0.0,38,0.00,,CLR,0.00,VWS V14.01,2013-03-10 02:35:00,
2013-03-09 21:40:00,47.1,22.8,30.41,NNE,13,0.0,0.0,38,0.00,,CLR,0.00,VWS V14.01,2013-03-10 02:40:00,
2013-03-09 21:45:00,47.1,23.4,30.41,NNE,13,0.0,0.0,39,0.00,,CLR,0.00,VWS V14.01,2013-03-10 02:45:00,
2013-03-09 21:51:00,47.0,24.0,30.41,NNE,13,0.0,0.0,40,0.00,,CLR,0.00,VWS V14.01,2013-03-10 02:51:00,
2013-03-09 21:57:00,46.7,23.1,30.41,NNE,13,0.0,0.0,39,0.00,,CLR,0.00,VWS V14.01,2013-03-10 02:57:00,
2013-03-09 22:03:00,46.7,23.1,30.41,NNE,13,0.0,0.0,39,0.00,,CLR,0.00,VWS V14.01,2013-03-10 03:03:00,
2013-03-09 22:10:00,46.5,22.9,30.41,NNE,13,0.0,0.0,39,0.00,,CLR,0.00,VWS V14.01,2013-03-10 03:10:00,
2013-03-09 22:16:00,46.5,22.9,30.41,NNE,13,0.0,0.0,39,0.00,,CLR,0.00,VWS V14.01,2013-03-10 03:16:00,
2013-03-09 22:22:00,46.5,22.9,30.41,NNE,13,0.0,0.0,39,0.00,,CLR,0.00,VWS V14.01,2013-03-10 03:22:00,
2013-03-09 22:28:00,46.5,23.5,30.41,NNE,13,0.0,0.0,40,0.00,,CLR,0.00,VWS V14.01,2013-03-10 03:28:00,
2013-03-09 22:34:00,46.4,23.4,30.41,NNE,13,0.0,0.0,40,0.00,,CLR,0.00,VWS V14.01,2013-03-10 03:34:00,
2013-03-09 22:40:00,46.4,23.4,30.41,NNE,13,0.0,0.0,40,0.00,,CLR,0.00,VWS V14.01,2013-03-10 03:40:00,
2013-03-09 22:46:00,46.2,23.2,30.41,NNE,13,0.0,0.0,40,0.00,,CLR,0.00,VWS V14.01,2013-03-10 03:46:00,
2013-03-09 22:52:00,46.1,23.7,30.41,NNE,13,0.0,0.0,41,0.00,,CLR,0.00,VWS V14.01,2013-03-10 03:52:00,
2013-03-09 22:58:00,46.0,23.6,30.41,NNE,13,0.0,0.0,41,0.00,,CLR,0.00,VWS V14.01,2013-03-10 03:58:00,
2013-03-09 23:04:00,45.8,24.0,30.41,NNE,13,0.0,0.0,42,0.00,,CLR,0.00,VWS V14.01,2013-03-10 04:04:00,
2013-03-09 23:10:00,45.5,24.3,30.41,NNE,13,0.0,0.0,43,0.00,,CLR,0.00,VWS V14.01,2013-03-10 04:10:00,
2013-03-09 23:16:00,45.4,24.2,30.40,NNE,13,0.0,0.0,43,0.00,,CLR,0.00,VWS V14.01,2013-03-10 04:16:00,
2013-03-09 23:22:00,45.5,24.3,30.40,NNE,13,0.0,0.0,43,0.00,,CLR,0.00,VWS V14.01,2013-03-10 04:22:00,
2013-03-09 23:28:00,45.5,24.3,30.40,NNE,13,0.0,0.0,43,0.00,,CLR,0.00,VWS V14.01,2013-03-10 04:28:00,
2013-03-09 23:34:00,45.4,24.2,30.40,NNE,13,0.0,0.0,43,0.00,,CLR,0.00,VWS V14.01,2013-03-10 04:34:00,
2013-03-09 23:40:00,45.4,24.2,30.40,NNE,13,0.0,0.0,43,0.00,,CLR,0.00,VWS V14.01,2013-03-10 04:40:00,
2013-03-09 23:46:00,45.2,24.6,30.40,NNE,13,0.0,0.0,44,0.00,,CLR,0.00,VWS V14.01,2013-03-10 04:46:00,
2013-03-09 23:52:00,45.2,24.6,30.40,NNE,13,0.0,0.0,44,0.00,,CLR,0.00,VWS V14.01,2013-03-10 04:52:00,
2013-03-09 23:58:00,44.9,24.9,30.40,NNE,13,0.0,0.0,45,0.00,,CLR,0.00,VWS V14.01,2013-03-10 04:58:00,